owner,sensor,date,latitude,longitude,vertical_datum,sea_water_practical_salinity,qcFlag 
DISL,ioos:station:DISL:PPTA:1,2014-05-01T00:00:00Z,30.2791,-87.5561,2.147,2.18,1111122 
DISL,ioos:station:DISL:PPTA:1,2014-05-01T00:30:00Z,30.2791,-87.5561,2.126,2.02,1111122 
DISL,ioos:station:DISL:PPTA:1,2014-05-01T01:00:00Z,30.2791,-87.5561,2.112,1.9,1111122 
DISL,ioos:station:DISL:PPTA:1,2014-05-01T01:30:00Z,30.2791,-87.5561,2.097,2.11,1111122 
DISL,ioos:station:DISL:PPTA:1,2014-05-01T02:00:00Z,30.2791,-87.5561,2.099,1.84,1111122 
DISL,ioos:station:DISL:PPTA:1,2014-05-01T02:30:00Z,30.2791,-87.5561,2.081,1.81,1111122 
DISL,ioos:station:DISL:PPTA:1,2014-05-01T03:00:00Z,30.2791,-87.5561,2.075,1.4,1111122 
DISL,ioos:station:DISL:PPTA:1,2014-05-01T03:30:00Z,30.2791,-87.5561,2.051,1.58,1111122 
DISL,ioos:station:DISL:PPTA:1,2014-05-01T04:00:00Z,30.2791,-87.5561,2.052,1.62,1111122 
DISL,ioos:station:DISL:PPTA:1,2014-05-01T04:30:00Z,30.2791,-87.5561,2.037,1.34,1111122 
DISL,ioos:station:DISL:PPTA:1,2014-05-01T05:00:00Z,30.2791,-87.5561,2.033,1.52,1111122 
DISL,ioos:station:DISL:PPTA:1,2014-05-01T05:30:00Z,30.2791,-87.5561,2.022,1.35,1111122 
DISL,ioos:station:DISL:PPTA:1,2014-05-01T06:00:00Z,30.2791,-87.5561,2.022,1.44,1111122 
DISL,ioos:station:DISL:PPTA:1,2014-05-01T06:30:00Z,30.2791,-87.5561,1.997,1.43,1111122 
DISL,ioos:station:DISL:PPTA:1,2014-05-01T07:00:00Z,30.2791,-87.5561,1.985,1.39,1111122 
DISL,ioos:station:DISL:PPTA:1,2014-05-01T07:30:00Z,30.2791,-87.5561,1.984,1.2,1111122 
DISL,ioos:station:DISL:PPTA:1,2014-05-01T08:00:00Z,30.2791,-87.5561,1.967,1.41,1111122 
DISL,ioos:station:DISL:PPTA:1,2014-05-01T08:30:00Z,30.2791,-87.5561,1.976,1.71,1111122 
DISL,ioos:station:DISL:PPTA:1,2014-05-01T09:00:00Z,30.2791,-87.5561,1.965,1.36,1111122 
DISL,ioos:station:DISL:PPTA:1,2014-05-01T09:30:00Z,30.2791,-87.5561,1.988,1.13,1111122 
DISL,ioos:station:DISL:PPTA:1,2014-05-01T10:00:00Z,30.2791,-87.5561,1.96,1.13,1111122 
DISL,ioos:station:DISL:PPTA:1,2014-05-01T10:30:00Z,30.2791,-87.5561,1.959,1.36,1111122 
DISL,ioos:station:DISL:PPTA:1,2014-05-01T11:00:00Z,30.2791,-87.5561,1.943,1.51,1111122 
DISL,ioos:station:DISL:PPTA:1,2014-05-01T11:30:00Z,30.2791,-87.5561,1.95,1.34,1111122 
DISL,ioos:station:DISL:PPTA:1,2014-05-01T12:00:00Z,30.2791,-87.5561,1.96,1.28,1111122 
DISL,ioos:station:DISL:PPTA:1,2014-05-01T12:30:00Z,30.2791,-87.5561,1.951,1.27,1111122 
DISL,ioos:station:DISL:PPTA:1,2014-05-01T13:00:00Z,30.2791,-87.5561,1.948,1.21,1111122 
DISL,ioos:station:DISL:PPTA:1,2014-05-01T13:30:00Z,30.2791,-87.5561,1.968,1.3,1111122 
DISL,ioos:station:DISL:PPTA:1,2014-05-01T14:00:00Z,30.2791,-87.5561,1.961,1.28,1111122 
DISL,ioos:station:DISL:PPTA:1,2014-05-01T14:30:00Z,30.2791,-87.5561,1.968,1.17,1111122 
DISL,ioos:station:DISL:PPTA:1,2014-05-01T15:00:00Z,30.2791,-87.5561,1.939,1.23,1111122 
DISL,ioos:station:DISL:PPTA:1,2014-05-01T15:30:00Z,30.2791,-87.5561,1.914,1.19,1111122 
DISL,ioos:station:DISL:PPTA:1,2014-05-01T16:00:00Z,30.2791,-87.5561,1.933,0.98,1111122 
DISL,ioos:station:DISL:PPTA:1,2014-05-01T16:30:00Z,30.2791,-87.5561,1.901,1.13,1111122 
DISL,ioos:station:DISL:PPTA:1,2014-05-01T17:00:00Z,30.2791,-87.5561,1.885,1.04,1111122 
DISL,ioos:station:DISL:PPTA:1,2014-05-01T17:30:00Z,30.2791,-87.5561,1.864,1.18,1111122 
DISL,ioos:station:DISL:PPTA:1,2014-05-01T18:00:00Z,30.2791,-87.5561,1.851,1.14,1111122 
DISL,ioos:station:DISL:PPTA:1,2014-05-01T18:30:00Z,30.2791,-87.5561,1.841,1.21,1111122 
DISL,ioos:station:DISL:PPTA:1,2014-05-01T19:00:00Z,30.2791,-87.5561,1.833,1.17,1111122 
DISL,ioos:station:DISL:PPTA:1,2014-05-01T19:30:00Z,30.2791,-87.5561,1.823,1.18,1111122 
DISL,ioos:station:DISL:PPTA:1,2014-05-01T20:00:00Z,30.2791,-87.5561,1.788,1.15,1111122 
DISL,ioos:station:DISL:PPTA:1,2014-05-01T20:30:00Z,30.2791,-87.5561,1.761,1.12,1111122 
DISL,ioos:station:DISL:PPTA:1,2014-05-01T21:00:00Z,30.2791,-87.5561,1.735,1.16,1111122 
DISL,ioos:station:DISL:PPTA:1,2014-05-01T21:30:00Z,30.2791,-87.5561,1.709,1.39,1111122 
DISL,ioos:station:DISL:PPTA:1,2014-05-01T22:00:00Z,30.2791,-87.5561,1.686,1.23,1111122 
DISL,ioos:station:DISL:PPTA:1,2014-05-01T22:30:00Z,30.2791,-87.5561,1.659,1.15,1111122 
DISL,ioos:station:DISL:PPTA:1,2014-05-01T23:00:00Z,30.2791,-87.5561,1.639,1.09,1111122 
DISL,ioos:station:DISL:PPTA:1,2014-05-01T23:30:00Z,30.2791,-87.5561,1.642,0.94,1111122 
DISL,ioos:station:DISL:PPTA:1,2014-05-02T00:00:00Z,30.2791,-87.5561,1.607,1.07,1111122 
DISL,ioos:station:DISL:PPTA:1,2014-05-02T00:30:00Z,30.2791,-87.5561,1.583,0.88,1111122 
DISL,ioos:station:DISL:PPTA:1,2014-05-02T01:00:00Z,30.2791,-87.5561,1.59,0.79,1111122 
DISL,ioos:station:DISL:PPTA:1,2014-05-02T01:30:00Z,30.2791,-87.5561,1.575,0.82,1111122 
DISL,ioos:station:DISL:PPTA:1,2014-05-02T02:00:00Z,30.2791,-87.5561,1.557,0.82,1111122 
DISL,ioos:station:DISL:PPTA:1,2014-05-02T02:30:00Z,30.2791,-87.5561,1.544,0.93,1111122 
DISL,ioos:station:DISL:PPTA:1,2014-05-02T03:00:00Z,30.2791,-87.5561,1.531,0.87,1111122 
DISL,ioos:station:DISL:PPTA:1,2014-05-02T03:30:00Z,30.2791,-87.5561,1.51,0.84,1111122 
DISL,ioos:station:DISL:PPTA:1,2014-05-02T04:00:00Z,30.2791,-87.5561,1.507,0.92,1111122 
DISL,ioos:station:DISL:PPTA:1,2014-05-02T04:30:00Z,30.2791,-87.5561,1.507,0.76,1111122 
DISL,ioos:station:DISL:PPTA:1,2014-05-02T05:00:00Z,30.2791,-87.5561,1.474,0.84,1111122 
DISL,ioos:station:DISL:PPTA:1,2014-05-02T05:30:00Z,30.2791,-87.5561,1.492,0.79,1111122 
DISL,ioos:station:DISL:PPTA:1,2014-05-02T06:00:00Z,30.2791,-87.5561,1.493,0.77,1111122 
DISL,ioos:station:DISL:PPTA:1,2014-05-02T06:30:00Z,30.2791,-87.5561,1.48,0.82,1111122 
DISL,ioos:station:DISL:PPTA:1,2014-05-02T07:00:00Z,30.2791,-87.5561,1.499,0.81,1111122 
DISL,ioos:station:DISL:PPTA:1,2014-05-02T07:30:00Z,30.2791,-87.5561,1.492,0.77,1111122 
DISL,ioos:station:DISL:PPTA:1,2014-05-02T08:00:00Z,30.2791,-87.5561,1.47,0.92,1111122 
DISL,ioos:station:DISL:PPTA:1,2014-05-02T08:30:00Z,30.2791,-87.5561,1.464,0.74,1111122 
DISL,ioos:station:DISL:PPTA:1,2014-05-02T09:00:00Z,30.2791,-87.5561,1.465,0.65,1111122 
DISL,ioos:station:DISL:PPTA:1,2014-05-02T09:30:00Z,30.2791,-87.5561,1.476,0.73,1111122 
DISL,ioos:station:DISL:PPTA:1,2014-05-02T10:00:00Z,30.2791,-87.5561,1.5,0.62,1111122 
DISL,ioos:station:DISL:PPTA:1,2014-05-02T10:30:00Z,30.2791,-87.5561,1.501,0.64,1111122 
DISL,ioos:station:DISL:PPTA:1,2014-05-02T11:00:00Z,30.2791,-87.5561,1.521,0.56,1111122 
DISL,ioos:station:DISL:PPTA:1,2014-05-02T11:30:00Z,30.2791,-87.5561,1.534,0.62,1111122 
DISL,ioos:station:DISL:PPTA:1,2014-05-02T12:00:00Z,30.2791,-87.5561,1.564,0.43,1111122 
DISL,ioos:station:DISL:PPTA:1,2014-05-02T12:30:00Z,30.2791,-87.5561,1.513,0.68,1111122 
DISL,ioos:station:DISL:PPTA:1,2014-05-02T13:00:00Z,30.2791,-87.5561,1.559,0.63,1111122 
DISL,ioos:station:DISL:PPTA:1,2014-05-02T13:30:00Z,30.2791,-87.5561,1.589,0.35,1111122 
DISL,ioos:station:DISL:PPTA:1,2014-05-02T14:00:00Z,30.2791,-87.5561,1.585,0.65,1111122 
DISL,ioos:station:DISL:PPTA:1,2014-05-02T14:30:00Z,30.2791,-87.5561,1.588,0.5,1111122 
DISL,ioos:station:DISL:PPTA:1,2014-05-02T15:00:00Z,30.2791,-87.5561,1.595,0.91,1111122 
DISL,ioos:station:DISL:PPTA:1,2014-05-02T15:30:00Z,30.2791,-87.5561,1.584,1.14,1111122 
DISL,ioos:station:DISL:PPTA:1,2014-05-02T16:00:00Z,30.2791,-87.5561,1.56,1.14,1111122 
DISL,ioos:station:DISL:PPTA:1,2014-05-02T16:30:00Z,30.2791,-87.5561,1.579,0.76,1111122 
DISL,ioos:station:DISL:PPTA:1,2014-05-02T17:00:00Z,30.2791,-87.5561,1.583,0.54,1111122 
DISL,ioos:station:DISL:PPTA:1,2014-05-02T17:30:00Z,30.2791,-87.5561,1.576,0.91,1111122 
DISL,ioos:station:DISL:PPTA:1,2014-05-02T18:00:00Z,30.2791,-87.5561,1.581,0.47,1111122 
DISL,ioos:station:DISL:PPTA:1,2014-05-02T18:30:00Z,30.2791,-87.5561,1.569,1.21,1111122 
DISL,ioos:station:DISL:PPTA:1,2014-05-02T19:00:00Z,30.2791,-87.5561,1.572,0.61,1111122 
DISL,ioos:station:DISL:PPTA:1,2014-05-02T19:30:00Z,30.2791,-87.5561,1.56,0.97,1111122 
DISL,ioos:station:DISL:PPTA:1,2014-05-02T20:00:00Z,30.2791,-87.5561,1.536,1.16,1111122 
DISL,ioos:station:DISL:PPTA:1,2014-05-02T20:30:00Z,30.2791,-87.5561,1.513,1.14,1111122 
DISL,ioos:station:DISL:PPTA:1,2014-05-02T21:00:00Z,30.2791,-87.5561,1.494,0.6,1111122 
DISL,ioos:station:DISL:PPTA:1,2014-05-02T21:30:00Z,30.2791,-87.5561,1.48,0.62,1111122 
DISL,ioos:station:DISL:PPTA:1,2014-05-02T22:00:00Z,30.2791,-87.5561,1.474,0.38,1111122 
DISL,ioos:station:DISL:PPTA:1,2014-05-02T22:30:00Z,30.2791,-87.5561,1.446,0.64,1111122 
DISL,ioos:station:DISL:PPTA:1,2014-05-02T23:00:00Z,30.2791,-87.5561,1.418,0.62,1111122 
DISL,ioos:station:DISL:PPTA:1,2014-05-02T23:30:00Z,30.2791,-87.5561,1.392,0.72,1111122 
DISL,ioos:station:DISL:PPTA:1,2014-05-03T00:00:00Z,30.2791,-87.5561,1.363,0.95,1111122 
DISL,ioos:station:DISL:PPTA:1,2014-05-03T00:30:00Z,30.2791,-87.5561,1.374,0.62,1111122 
DISL,ioos:station:DISL:PPTA:1,2014-05-03T01:00:00Z,30.2791,-87.5561,1.384,0.37,1111122 
DISL,ioos:station:DISL:PPTA:1,2014-05-03T01:30:00Z,30.2791,-87.5561,1.333,0.53,1111122 
DISL,ioos:station:DISL:PPTA:1,2014-05-03T02:00:00Z,30.2791,-87.5561,1.344,0.39,1111122 
DISL,ioos:station:DISL:PPTA:1,2014-05-03T02:30:00Z,30.2791,-87.5561,1.316,0.41,1111122 
DISL,ioos:station:DISL:PPTA:1,2014-05-03T03:00:00Z,30.2791,-87.5561,1.319,0.46,1111122 
DISL,ioos:station:DISL:PPTA:1,2014-05-03T03:30:00Z,30.2791,-87.5561,1.321,0.57,1111122 
DISL,ioos:station:DISL:PPTA:1,2014-05-03T04:00:00Z,30.2791,-87.5561,1.315,0.57,1111122 
DISL,ioos:station:DISL:PPTA:1,2014-05-03T04:30:00Z,30.2791,-87.5561,1.336,0.57,1111122 
DISL,ioos:station:DISL:PPTA:1,2014-05-03T05:00:00Z,30.2791,-87.5561,1.307,0.47,1111122 
DISL,ioos:station:DISL:PPTA:1,2014-05-03T05:30:00Z,30.2791,-87.5561,1.319,0.62,1111122 
DISL,ioos:station:DISL:PPTA:1,2014-05-03T06:00:00Z,30.2791,-87.5561,1.312,0.53,1111122 
DISL,ioos:station:DISL:PPTA:1,2014-05-03T06:30:00Z,30.2791,-87.5561,1.325,0.64,1111122 
DISL,ioos:station:DISL:PPTA:1,2014-05-03T07:00:00Z,30.2791,-87.5561,1.316,0.55,1111122 
DISL,ioos:station:DISL:PPTA:1,2014-05-03T07:30:00Z,30.2791,-87.5561,1.335,0.56,1111122 
DISL,ioos:station:DISL:PPTA:1,2014-05-03T08:00:00Z,30.2791,-87.5561,1.344,0.49,1111122 
DISL,ioos:station:DISL:PPTA:1,2014-05-03T08:30:00Z,30.2791,-87.5561,1.35,0.45,1111122 
DISL,ioos:station:DISL:PPTA:1,2014-05-03T09:00:00Z,30.2791,-87.5561,1.315,0.46,1111122 
DISL,ioos:station:DISL:PPTA:1,2014-05-03T09:30:00Z,30.2791,-87.5561,1.348,0.72,1111122 
DISL,ioos:station:DISL:PPTA:1,2014-05-03T10:00:00Z,30.2791,-87.5561,1.311,0.58,1111122 
DISL,ioos:station:DISL:PPTA:1,2014-05-03T10:30:00Z,30.2791,-87.5561,1.369,0.53,1111122 
DISL,ioos:station:DISL:PPTA:1,2014-05-03T11:00:00Z,30.2791,-87.5561,1.372,0.78,1111122 
DISL,ioos:station:DISL:PPTA:1,2014-05-03T11:30:00Z,30.2791,-87.5561,1.373,1.76,1111122 
DISL,ioos:station:DISL:PPTA:1,2014-05-03T12:00:00Z,30.2791,-87.5561,1.388,8.77,1111122 
DISL,ioos:station:DISL:PPTA:1,2014-05-03T12:30:00Z,30.2791,-87.5561,1.356,22.45,1111122 
DISL,ioos:station:DISL:PPTA:1,2014-05-03T13:00:00Z,30.2791,-87.5561,1.4,25.99,1111122 
DISL,ioos:station:DISL:PPTA:1,2014-05-03T13:30:00Z,30.2791,-87.5561,1.387,26.84,1111122 
DISL,ioos:station:DISL:PPTA:1,2014-05-03T14:00:00Z,30.2791,-87.5561,1.433,27.28,1111122 
DISL,ioos:station:DISL:PPTA:1,2014-05-03T14:30:00Z,30.2791,-87.5561,1.455,27.6,1111122 
DISL,ioos:station:DISL:PPTA:1,2014-05-03T15:00:00Z,30.2791,-87.5561,1.45,27.75,1111122 
DISL,ioos:station:DISL:PPTA:1,2014-05-03T15:30:00Z,30.2791,-87.5561,1.455,28.01,1111122 
DISL,ioos:station:DISL:PPTA:1,2014-05-03T16:00:00Z,30.2791,-87.5561,1.478,28.47,1111122 
DISL,ioos:station:DISL:PPTA:1,2014-05-03T16:30:00Z,30.2791,-87.5561,1.467,28.86,1111122 
DISL,ioos:station:DISL:PPTA:1,2014-05-03T17:00:00Z,30.2791,-87.5561,1.472,29.09,1111122 
DISL,ioos:station:DISL:PPTA:1,2014-05-03T17:30:00Z,30.2791,-87.5561,1.476,29.33,1111122 
DISL,ioos:station:DISL:PPTA:1,2014-05-03T18:00:00Z,30.2791,-87.5561,1.472,29.26,1111122 
DISL,ioos:station:DISL:PPTA:1,2014-05-03T18:30:00Z,30.2791,-87.5561,1.459,30.08,1111122 
DISL,ioos:station:DISL:PPTA:1,2014-05-03T19:00:00Z,30.2791,-87.5561,1.453,24.89,1111122 
DISL,ioos:station:DISL:PPTA:1,2014-05-03T19:30:00Z,30.2791,-87.5561,1.455,28.93,1111122 
DISL,ioos:station:DISL:PPTA:1,2014-05-03T20:00:00Z,30.2791,-87.5561,1.462,20.63,1111122 
DISL,ioos:station:DISL:PPTA:1,2014-05-03T20:30:00Z,30.2791,-87.5561,1.456,14.6,1111122 
DISL,ioos:station:DISL:PPTA:1,2014-05-03T21:00:00Z,30.2791,-87.5561,1.437,11.27,1111122 
DISL,ioos:station:DISL:PPTA:1,2014-05-03T21:30:00Z,30.2791,-87.5561,1.413,9.13,1111122 
DISL,ioos:station:DISL:PPTA:1,2014-05-03T22:00:00Z,30.2791,-87.5561,1.382,13.08,1111122 
DISL,ioos:station:DISL:PPTA:1,2014-05-03T22:30:00Z,30.2791,-87.5561,1.34,11.21,1111122 
DISL,ioos:station:DISL:PPTA:1,2014-05-03T23:00:00Z,30.2791,-87.5561,1.329,11.41,1111122 
DISL,ioos:station:DISL:PPTA:1,2014-05-03T23:30:00Z,30.2791,-87.5561,1.32,10.66,1111122 
DISL,ioos:station:DISL:PPTA:1,2014-05-04T00:00:00Z,30.2791,-87.5561,1.299,8.84,1111122 
DISL,ioos:station:DISL:PPTA:1,2014-05-04T00:30:00Z,30.2791,-87.5561,1.289,8.14,1111122 
DISL,ioos:station:DISL:PPTA:1,2014-05-04T01:00:00Z,30.2791,-87.5561,1.276,5.53,1111122 
DISL,ioos:station:DISL:PPTA:1,2014-05-04T01:30:00Z,30.2791,-87.5561,1.266,4.95,1111122 
DISL,ioos:station:DISL:PPTA:1,2014-05-04T02:00:00Z,30.2791,-87.5561,1.256,4.83,1111122 
DISL,ioos:station:DISL:PPTA:1,2014-05-04T02:30:00Z,30.2791,-87.5561,1.238,4.2,1111122 
DISL,ioos:station:DISL:PPTA:1,2014-05-04T03:00:00Z,30.2791,-87.5561,1.225,4.61,1111122 
DISL,ioos:station:DISL:PPTA:1,2014-05-04T03:30:00Z,30.2791,-87.5561,1.206,5.91,1111122 
DISL,ioos:station:DISL:PPTA:1,2014-05-04T04:00:00Z,30.2791,-87.5561,1.194,5.53,1111122 
DISL,ioos:station:DISL:PPTA:1,2014-05-04T04:30:00Z,30.2791,-87.5561,1.197,4.74,1111122 
DISL,ioos:station:DISL:PPTA:1,2014-05-04T05:00:00Z,30.2791,-87.5561,1.196,6.85,1111122 
DISL,ioos:station:DISL:PPTA:1,2014-05-04T05:30:00Z,30.2791,-87.5561,1.194,5.72,1111122 
DISL,ioos:station:DISL:PPTA:1,2014-05-04T06:00:00Z,30.2791,-87.5561,1.196,5.28,1111122 
DISL,ioos:station:DISL:PPTA:1,2014-05-04T06:30:00Z,30.2791,-87.5561,1.203,5.75,1111122 
DISL,ioos:station:DISL:PPTA:1,2014-05-04T07:00:00Z,30.2791,-87.5561,1.206,5.67,1111122 
DISL,ioos:station:DISL:PPTA:1,2014-05-04T07:30:00Z,30.2791,-87.5561,1.199,5.1,1111122 
DISL,ioos:station:DISL:PPTA:1,2014-05-04T08:00:00Z,30.2791,-87.5561,1.197,5.11,1111122 
DISL,ioos:station:DISL:PPTA:1,2014-05-04T08:30:00Z,30.2791,-87.5561,1.198,5.08,1111122 
DISL,ioos:station:DISL:PPTA:1,2014-05-04T09:00:00Z,30.2791,-87.5561,1.189,5.86,1111122 
DISL,ioos:station:DISL:PPTA:1,2014-05-04T09:30:00Z,30.2791,-87.5561,1.2,5.58,1111122 
DISL,ioos:station:DISL:PPTA:1,2014-05-04T10:00:00Z,30.2791,-87.5561,1.207,2.5,1111122 
DISL,ioos:station:DISL:PPTA:1,2014-05-04T10:30:00Z,30.2791,-87.5561,1.214,4.95,1111122 
DISL,ioos:station:DISL:PPTA:1,2014-05-04T11:00:00Z,30.2791,-87.5561,1.226,4.56,1111122 
DISL,ioos:station:DISL:PPTA:1,2014-05-04T11:30:00Z,30.2791,-87.5561,1.224,5.06,1111122 
DISL,ioos:station:DISL:PPTA:1,2014-05-04T12:00:00Z,30.2791,-87.5561,1.237,5.75,1111122 
DISL,ioos:station:DISL:PPTA:1,2014-05-04T12:30:00Z,30.2791,-87.5561,1.237,10.45,1111122 
DISL,ioos:station:DISL:PPTA:1,2014-05-04T13:00:00Z,30.2791,-87.5561,1.228,23.54,1111122 
DISL,ioos:station:DISL:PPTA:1,2014-05-04T13:30:00Z,30.2791,-87.5561,1.241,27.6,1111122 
DISL,ioos:station:DISL:PPTA:1,2014-05-04T14:00:00Z,30.2791,-87.5561,1.253,28.81,1111122 
DISL,ioos:station:DISL:PPTA:1,2014-05-04T14:30:00Z,30.2791,-87.5561,1.273,29.2,1111122 
DISL,ioos:station:DISL:PPTA:1,2014-05-04T15:00:00Z,30.2791,-87.5561,1.29,29.7,1111122 
DISL,ioos:station:DISL:PPTA:1,2014-05-04T15:30:00Z,30.2791,-87.5561,1.307,29.81,1111122 
DISL,ioos:station:DISL:PPTA:1,2014-05-04T16:00:00Z,30.2791,-87.5561,1.315,30.05,1111122 
DISL,ioos:station:DISL:PPTA:1,2014-05-04T16:30:00Z,30.2791,-87.5561,1.317,30.26,1111122 
DISL,ioos:station:DISL:PPTA:1,2014-05-04T17:00:00Z,30.2791,-87.5561,1.322,30.32,1111122 
DISL,ioos:station:DISL:PPTA:1,2014-05-04T17:30:00Z,30.2791,-87.5561,1.316,30.74,1111122 
DISL,ioos:station:DISL:PPTA:1,2014-05-04T18:00:00Z,30.2791,-87.5561,1.316,30.49,1111122 
DISL,ioos:station:DISL:PPTA:1,2014-05-04T18:30:00Z,30.2791,-87.5561,1.33,30.93,1111122 
DISL,ioos:station:DISL:PPTA:1,2014-05-04T19:00:00Z,30.2791,-87.5561,1.33,30.98,1111122 
DISL,ioos:station:DISL:PPTA:1,2014-05-04T19:30:00Z,30.2791,-87.5561,1.319,31.03,1111122 
DISL,ioos:station:DISL:PPTA:1,2014-05-04T20:00:00Z,30.2791,-87.5561,1.307,31.08,1111122 
DISL,ioos:station:DISL:PPTA:1,2014-05-04T20:30:00Z,30.2791,-87.5561,1.297,29.62,1111122 
DISL,ioos:station:DISL:PPTA:1,2014-05-04T21:00:00Z,30.2791,-87.5561,1.292,29.42,1111122 
DISL,ioos:station:DISL:PPTA:1,2014-05-04T21:30:00Z,30.2791,-87.5561,1.286,26.92,1111122 
DISL,ioos:station:DISL:PPTA:1,2014-05-04T22:00:00Z,30.2791,-87.5561,1.27,23.33,1111122 
DISL,ioos:station:DISL:PPTA:1,2014-05-04T22:30:00Z,30.2791,-87.5561,1.269,19.56,1111122 
DISL,ioos:station:DISL:PPTA:1,2014-05-04T23:00:00Z,30.2791,-87.5561,1.265,14.26,1111122 
DISL,ioos:station:DISL:PPTA:1,2014-05-04T23:30:00Z,30.2791,-87.5561,1.261,13.07,1111122 
DISL,ioos:station:DISL:PPTA:1,2014-05-05T00:00:00Z,30.2791,-87.5561,1.244,17.8,1111122 
DISL,ioos:station:DISL:PPTA:1,2014-05-05T00:30:00Z,30.2791,-87.5561,1.241,17.02,1111122 
DISL,ioos:station:DISL:PPTA:1,2014-05-05T01:00:00Z,30.2791,-87.5561,1.232,13.19,1111122 
DISL,ioos:station:DISL:PPTA:1,2014-05-05T01:30:00Z,30.2791,-87.5561,1.214,11.89,1111122 
DISL,ioos:station:DISL:PPTA:1,2014-05-05T02:00:00Z,30.2791,-87.5561,1.192,11.66,1111122 
DISL,ioos:station:DISL:PPTA:1,2014-05-05T02:30:00Z,30.2791,-87.5561,1.189,7.73,1111122 
DISL,ioos:station:DISL:PPTA:1,2014-05-05T03:00:00Z,30.2791,-87.5561,1.183,8.9,1111122 
DISL,ioos:station:DISL:PPTA:1,2014-05-05T03:30:00Z,30.2791,-87.5561,1.176,5.89,1111122 
DISL,ioos:station:DISL:PPTA:1,2014-05-05T04:00:00Z,30.2791,-87.5561,1.169,5.32,1111122 
DISL,ioos:station:DISL:PPTA:1,2014-05-05T04:30:00Z,30.2791,-87.5561,1.156,5.01,1111122 
DISL,ioos:station:DISL:PPTA:1,2014-05-05T05:00:00Z,30.2791,-87.5561,1.151,4.62,1111122 
DISL,ioos:station:DISL:PPTA:1,2014-05-05T05:30:00Z,30.2791,-87.5561,1.153,4.37,1111122 
DISL,ioos:station:DISL:PPTA:1,2014-05-05T06:00:00Z,30.2791,-87.5561,1.154,4.22,1111122 
DISL,ioos:station:DISL:PPTA:1,2014-05-05T06:30:00Z,30.2791,-87.5561,1.15,4.5,1111122 
DISL,ioos:station:DISL:PPTA:1,2014-05-05T07:00:00Z,30.2791,-87.5561,1.146,5.52,1111122 
DISL,ioos:station:DISL:PPTA:1,2014-05-05T07:30:00Z,30.2791,-87.5561,1.137,3.85,1111122 
DISL,ioos:station:DISL:PPTA:1,2014-05-05T08:00:00Z,30.2791,-87.5561,1.142,7.15,1111122 
DISL,ioos:station:DISL:PPTA:1,2014-05-05T08:30:00Z,30.2791,-87.5561,1.139,8.1,1111122 
DISL,ioos:station:DISL:PPTA:1,2014-05-05T09:00:00Z,30.2791,-87.5561,1.143,8.55,1111122 
DISL,ioos:station:DISL:PPTA:1,2014-05-05T09:30:00Z,30.2791,-87.5561,1.147,7.64,1111122 
DISL,ioos:station:DISL:PPTA:1,2014-05-05T10:00:00Z,30.2791,-87.5561,1.154,7.79,1111122 
DISL,ioos:station:DISL:PPTA:1,2014-05-05T10:30:00Z,30.2791,-87.5561,1.163,6.0,1111122 
DISL,ioos:station:DISL:PPTA:1,2014-05-05T11:00:00Z,30.2791,-87.5561,1.165,5.35,1111122 
DISL,ioos:station:DISL:PPTA:1,2014-05-05T11:30:00Z,30.2791,-87.5561,1.18,7.26,1111122 
DISL,ioos:station:DISL:PPTA:1,2014-05-05T12:00:00Z,30.2791,-87.5561,1.174,19.97,1111122 
DISL,ioos:station:DISL:PPTA:1,2014-05-05T12:30:00Z,30.2791,-87.5561,1.173,27.72,1111122 
DISL,ioos:station:DISL:PPTA:1,2014-05-05T13:00:00Z,30.2791,-87.5561,1.188,29.25,1111122 
DISL,ioos:station:DISL:PPTA:1,2014-05-05T13:30:00Z,30.2791,-87.5561,1.205,29.47,1111122 
DISL,ioos:station:DISL:PPTA:1,2014-05-05T14:00:00Z,30.2791,-87.5561,1.216,29.69,1111122 
DISL,ioos:station:DISL:PPTA:1,2014-05-05T14:30:00Z,30.2791,-87.5561,1.238,29.92,1111122 
DISL,ioos:station:DISL:PPTA:1,2014-05-05T15:00:00Z,30.2791,-87.5561,1.252,30.32,1111122 
DISL,ioos:station:DISL:PPTA:1,2014-05-05T15:30:00Z,30.2791,-87.5561,1.261,30.46,1111122 
DISL,ioos:station:DISL:PPTA:1,2014-05-05T16:00:00Z,30.2791,-87.5561,1.276,31.08,1111122 
DISL,ioos:station:DISL:PPTA:1,2014-05-05T16:30:00Z,30.2791,-87.5561,1.283,31.43,1111122 
DISL,ioos:station:DISL:PPTA:1,2014-05-05T17:00:00Z,30.2791,-87.5561,1.29,31.07,1111122 
DISL,ioos:station:DISL:PPTA:1,2014-05-05T17:30:00Z,30.2791,-87.5561,1.295,31.49,1111122 
DISL,ioos:station:DISL:PPTA:1,2014-05-05T18:00:00Z,30.2791,-87.5561,1.302,31.49,1111122 
DISL,ioos:station:DISL:PPTA:1,2014-05-05T18:30:00Z,30.2791,-87.5561,1.302,31.61,1111122 
DISL,ioos:station:DISL:PPTA:1,2014-05-05T19:00:00Z,30.2791,-87.5561,1.3,31.5,1111122 
DISL,ioos:station:DISL:PPTA:1,2014-05-05T19:30:00Z,30.2791,-87.5561,1.303,31.44,1111122 
DISL,ioos:station:DISL:PPTA:1,2014-05-05T20:00:00Z,30.2791,-87.5561,1.304,31.4,1111122 
DISL,ioos:station:DISL:PPTA:1,2014-05-05T20:30:00Z,30.2791,-87.5561,1.297,31.48,1111122 
DISL,ioos:station:DISL:PPTA:1,2014-05-05T21:00:00Z,30.2791,-87.5561,1.292,31.56,1111122 
DISL,ioos:station:DISL:PPTA:1,2014-05-05T21:30:00Z,30.2791,-87.5561,1.292,31.22,1111122 
DISL,ioos:station:DISL:PPTA:1,2014-05-05T22:00:00Z,30.2791,-87.5561,1.285,31.35,1111122 
DISL,ioos:station:DISL:PPTA:1,2014-05-05T22:30:00Z,30.2791,-87.5561,1.269,31.1,1111122 
DISL,ioos:station:DISL:PPTA:1,2014-05-05T23:00:00Z,30.2791,-87.5561,1.266,28.75,1111122 
DISL,ioos:station:DISL:PPTA:1,2014-05-05T23:30:00Z,30.2791,-87.5561,1.259,28.24,1111122 
DISL,ioos:station:DISL:PPTA:1,2014-05-06T00:00:00Z,30.2791,-87.5561,1.247,27.76,1111122 
DISL,ioos:station:DISL:PPTA:1,2014-05-06T00:30:00Z,30.2791,-87.5561,1.24,26.67,1111122 
DISL,ioos:station:DISL:PPTA:1,2014-05-06T01:00:00Z,30.2791,-87.5561,1.258,14.69,1111122 
DISL,ioos:station:DISL:PPTA:1,2014-05-06T01:30:00Z,30.2791,-87.5561,1.256,13.68,1111122 
DISL,ioos:station:DISL:PPTA:1,2014-05-06T02:00:00Z,30.2791,-87.5561,1.249,11.87,1111122 
DISL,ioos:station:DISL:PPTA:1,2014-05-06T02:30:00Z,30.2791,-87.5561,1.24,9.92,1111122 
DISL,ioos:station:DISL:PPTA:1,2014-05-06T03:00:00Z,30.2791,-87.5561,1.227,17.93,1111122 
DISL,ioos:station:DISL:PPTA:1,2014-05-06T03:30:00Z,30.2791,-87.5561,1.22,16.18,1111122 
DISL,ioos:station:DISL:PPTA:1,2014-05-06T04:00:00Z,30.2791,-87.5561,1.215,15.13,1111122 
DISL,ioos:station:DISL:PPTA:1,2014-05-06T04:30:00Z,30.2791,-87.5561,1.21,17.3,1111122 
DISL,ioos:station:DISL:PPTA:1,2014-05-06T05:00:00Z,30.2791,-87.5561,1.202,16.51,1111122 
DISL,ioos:station:DISL:PPTA:1,2014-05-06T05:30:00Z,30.2791,-87.5561,1.191,13.12,1111122 
DISL,ioos:station:DISL:PPTA:1,2014-05-06T06:00:00Z,30.2791,-87.5561,1.184,17.38,1111122 
DISL,ioos:station:DISL:PPTA:1,2014-05-06T06:30:00Z,30.2791,-87.5561,1.18,15.24,1111122 
DISL,ioos:station:DISL:PPTA:1,2014-05-06T07:00:00Z,30.2791,-87.5561,1.178,12.83,1111122 
DISL,ioos:station:DISL:PPTA:1,2014-05-06T07:30:00Z,30.2791,-87.5561,1.185,13.7,1111122 
DISL,ioos:station:DISL:PPTA:1,2014-05-06T08:00:00Z,30.2791,-87.5561,1.189,10.94,1111122 
DISL,ioos:station:DISL:PPTA:1,2014-05-06T08:30:00Z,30.2791,-87.5561,1.19,8.44,1111122 
DISL,ioos:station:DISL:PPTA:1,2014-05-06T09:00:00Z,30.2791,-87.5561,1.184,9.09,1111122 
DISL,ioos:station:DISL:PPTA:1,2014-05-06T09:30:00Z,30.2791,-87.5561,1.185,7.0,1111122 
DISL,ioos:station:DISL:PPTA:1,2014-05-06T10:00:00Z,30.2791,-87.5561,1.191,7.94,1111122 
DISL,ioos:station:DISL:PPTA:1,2014-05-06T10:30:00Z,30.2791,-87.5561,1.195,7.92,1111122 
DISL,ioos:station:DISL:PPTA:1,2014-05-06T11:00:00Z,30.2791,-87.5561,1.199,8.45,1111122 
DISL,ioos:station:DISL:PPTA:1,2014-05-06T11:30:00Z,30.2791,-87.5561,1.205,21.2,1111122 
DISL,ioos:station:DISL:PPTA:1,2014-05-06T12:00:00Z,30.2791,-87.5561,1.204,26.87,1111122 
DISL,ioos:station:DISL:PPTA:1,2014-05-06T12:30:00Z,30.2791,-87.5561,1.221,28.7,1111122 
DISL,ioos:station:DISL:PPTA:1,2014-05-06T13:00:00Z,30.2791,-87.5561,1.23,29.87,1111122 
DISL,ioos:station:DISL:PPTA:1,2014-05-06T13:30:00Z,30.2791,-87.5561,1.238,29.92,1111122 
DISL,ioos:station:DISL:PPTA:1,2014-05-06T14:00:00Z,30.2791,-87.5561,1.253,28.74,1111122 
DISL,ioos:station:DISL:PPTA:1,2014-05-06T14:30:00Z,30.2791,-87.5561,1.262,28.73,1111122 
DISL,ioos:station:DISL:PPTA:1,2014-05-06T15:00:00Z,30.2791,-87.5561,1.261,29.89,1111122 